[[{"header":{"parameterUnit":"m.s-1","parameterCategory":1,"la1":30.2991,"la2":30.254,"lo1":-89.0895,"lo2":-89.0444,"dy":0.0017,"dx":0.0017,"nx":28,"ny":28,"refTime":"2024-07-16T09:00:00:Z","depth":0,"parameterNumber":2,"parameterNumberName":"U-component_of_WINDS"},"data":[0,0,0,0,0,0,0,0,0,0,0,0,0,0,0,0,0,0,0,0,0,0,0,0,0,0,0,0,0,0,0,0,0,0,0,0,0,0,0,0,0,0,0,0,0,0,0,0,0,0,0,0,0,0,0,0,0,0,-1.5716,-1.5714,0,-1.5558,-1.5556,-1.5554,-1.5469,-1.5469,-1.5468,-1.5468,-1.5304,-1.53,-1.5296,0,0,0,0,0,0,0,0,0,0,0,0,0,-1.5944,-1.594,-1.5716,-1.5714,-1.5712,-1.5558,-1.5556,-1.5554,-1.5469,-1.5469,-1.5468,-1.5468,-1.5305,-1.53,-1.5295,0,0,0,0,0,0,0,0,0,0,0,0,0,-1.5821,-1.5939,-1.5717,-1.5651,-1.5644,-1.5558,-1.5556,-1.5553,-1.5469,-1.5469,-1.5468,-1.5468,-1.5307,-1.5301,-1.5294,-1.5261,0,0,-1.5275,-1.5272,0,0,0,0,0,0,0,0,-1.5828,-1.5813,-1.5663,-1.5656,-1.5647,-1.5533,-1.5576,-1.5455,-1.5469,-1.5535,-1.5468,-1.5468,-1.538,-1.5368,-1.5338,-1.5253,-1.5246,-1.5275,-1.5271,-1.5268,-1.5266,0,0,0,0,0,0,0,-1.5837,-1.5819,-1.5653,-1.5661,-1.5651,-1.563,-1.5612,-1.5552,-1.5461,-1.5529,-1.5523,-1.5505,-1.5376,-1.5345,-1.5334,-1.5244,-1.5275,-1.5269,-1.5265,-1.5263,-1.5122,-1.5123,0,0,0,0,0,0,-1.5856,-1.5827,-1.5658,-1.5649,-1.5739,-1.5626,-1.5606,-1.557,-1.5461,-1.5445,-1.5506,-1.5502,-1.5356,-1.5341,-1.5328,-1.5281,-1.5268,-1.5262,-1.5259,-1.5122,-1.5122,-1.5123,0,0,0,0,0,0,-1.5861,-1.5842,-1.5665,-1.5736,-1.5712,-1.5622,-1.5582,-1.5567,-1.5536,-1.5444,-1.5427,-1.5491,-1.5355,-1.5337,-1.5278,-1.5274,-1.5259,-1.5254,-1.5122,-1.5122,-1.5123,-1.5187,0,0,0,0,0,0,-1.5868,-1.5844,-1.5831,-1.5736,-1.5708,-1.5619,-1.5582,-1.5564,-1.5525,-1.5519,-1.5425,-1.5409,-1.5353,-1.5288,-1.5272,-1.5265,-1.5249,-1.5122,-1.5122,-1.5122,-1.5185,-1.5189,-1.5193,0,0,0,0,0,-1.5877,-1.5855,-1.5831,-1.5811,-1.569,-1.5618,-1.5602,-1.5539,-1.5525,-1.5511,-1.5452,-1.5412,-1.5278,-1.5283,-1.5264,-1.5255,-1.5122,-1.5122,-1.5122,-1.5183,-1.5189,-1.5193,0,0,0,0,0,0,-1.5951,-1.5842,-1.5813,-1.576,-1.57,-1.5604,-1.5584,-1.5547,-1.5487,-1.5484,-1.5407,-1.5386,-1.5335,-1.5289,-1.5297,-1.5217,-1.5196,-1.5192,-1.5248,-1.5253,-1.5257,-1.5268,-1.5243,0,0,0,0,0,-1.5961,-1.5913,-1.582,-1.5782,-1.5753,-1.5674,-1.5641,-1.5597,-1.553,-1.5504,-1.544,-1.5377,-1.532,-1.5284,-1.5226,-1.5179,-1.5156,-1.5163,-1.5167,-1.5171,-1.5168,-1.5139,-1.5141,-1.5123,-1.5123,-1.5123,0,0,-1.5982,-1.5916,-1.589,-1.5795,-1.5743,-1.5694,-1.5653,-1.5603,-1.5566,-1.5496,-1.5437,-1.5388,-1.5312,-1.5259,-1.5232,-1.5219,-1.5169,-1.5171,-1.5175,-1.517,-1.514,-1.5141,-1.5143,-1.5123,-1.5123,-1.5123,0,0,-1.5994,-1.594,-1.5902,-1.5851,-1.5772,-1.572,-1.5712,-1.5622,-1.5587,-1.5527,-1.5473,-1.5428,-1.5332,-1.528,-1.5241,-1.5234,-1.5196,-1.5218,-1.5239,-1.5211,-1.5213,-1.5214,-1.5211,-1.5211,-1.5216,-1.5216,-1.5216,0,-1.6029,-1.5954,-1.5888,-1.5841,-1.58,-1.5736,-1.5697,-1.5651,-1.5557,-1.5531,-1.5518,-1.5396,-1.534,-1.5273,-1.5272,-1.5243,-1.523,-1.5227,-1.5218,-1.5218,-1.5218,-1.5214,-1.5213,-1.5219,-1.5219,-1.5218,-1.5218,0,-1.6001,-1.5949,-1.5928,-1.5841,-1.5798,-1.5756,-1.5683,-1.5647,-1.5608,-1.5557,-1.5496,-1.5428,-1.5355,-1.5336,-1.5297,-1.5264,-1.5258,-1.5233,-1.521,-1.5224,-1.5219,-1.5217,-1.5223,-1.5222,-1.5221,-1.5221,0,0,-1.6054,-1.5931,-1.5924,-1.5883,-1.5792,-1.5751,-1.5706,-1.5635,-1.5606,-1.5545,-1.5504,-1.5425,-1.5401,-1.5357,-1.5311,-1.5287,-1.5286,-1.5264,-1.5261,-1.527,-1.5245,-1.5264,-1.5263,-1.526,-1.526,-1.5259,-1.5251,0,-1.6053,-1.5968,-1.5908,-1.5846,-1.5798,-1.5737,-1.5697,-1.5637,-1.5588,-1.554,-1.5486,-1.543,-1.5404,-1.5376,-1.535,-1.5292,-1.5279,-1.5292,-1.5221,-1.5219,-1.5241,-1.526,-1.528,-1.5275,-1.5248,-1.5248,-1.5248,0,-1.6039,-1.598,-1.5914,-1.5828,-1.5806,-1.5771,-1.5702,-1.5657,-1.5587,-1.5553,-1.5505,-1.5458,-1.5407,-1.539,-1.5318,-1.5328,-1.5296,-1.5263,-1.5261,-1.5251,-1.5234,-1.525,-1.5272,-1.5271,-1.5244,-1.5245,-1.5245,0,-1.6084,-1.5988,-1.5936,-1.5903,-1.5802,-1.5779,-1.5735,-1.5666,-1.5627,-1.5567,-1.5541,-1.5476,-1.544,-1.539,-1.5326,-1.532,-1.5261,-1.5239,-1.5231,-1.5233,-1.522,-1.5222,-1.5236,-1.5202,-1.5202,-1.5202,-1.5202,0,-1.6088,-1.605,-1.5954,-1.5922,-1.5878,-1.5809,-1.5766,-1.5718,-1.5656,-1.5614,-1.5557,-1.5518,-1.5437,-1.5388,-1.5339,-1.5287,-1.5271,-1.5242,-1.5229,-1.5246,-1.525,-1.5223,-1.5221,-1.5201,-1.5201,-1.5201,-1.5201,0,-1.613,-1.6064,-1.6004,-1.5913,-1.5889,-1.5861,-1.5783,-1.5749,-1.5698,-1.5645,-1.5628,-1.5548,-1.5487,-1.542,-1.5336,-1.5303,-1.5254,-1.5236,-1.5278,-1.527,-1.5266,-1.5267,-1.5263,-1.5258,-1.5228,-1.5229,-1.5229,0,-1.6137,-1.6106,-1.6012,-1.598,-1.5938,-1.5886,-1.5847,-1.5778,-1.5739,-1.5658,-1.5634,-1.557,-1.5514,-1.5421,-1.5354,-1.5291,-1.527,-1.5273,-1.526,-1.5278,-1.5269,-1.5271,-1.5267,-1.5276,-1.5277,-1.5278,-1.5278,0,-1.6155,-1.6124,-1.607,-1.6004,-1.5959,-1.5904,-1.5847,-1.5824,-1.5743,-1.5703,-1.564,-1.5597,-1.5513,-1.5449,-1.5377,-1.5332,-1.5292,-1.5283,-1.5278,-1.5294,-1.532,-1.5305,-1.5287,-1.5283,-1.5283,-1.5282,-1.5282,-1.5282,-1.6178,-1.6148,-1.6078,-1.6019,-1.5969,-1.5917,-1.5881,-1.5825,-1.5772,-1.5698,-1.5661,-1.5599,-1.553,-1.5429,-1.5386,-1.5336,-1.5323,-1.5315,-1.5313,-1.5312,-1.5317,-1.5329,-1.5323,-1.5323,-1.5322,-1.5322,-1.5322,0,-1.6193,-1.6145,-1.6092,-1.6014,-1.5968,-1.5934,-1.5869,-1.5833,-1.5779,-1.5719,-1.5665,-1.5594,-1.5532,-1.5462,-1.5395,-1.5369,-1.5349,-1.5354,-1.5355,-1.5345,-1.5333,-1.5343,-1.5371,-1.5371,-1.5371,-1.5371,-1.5371,-1.5371,-1.6196,-1.6143,-1.6104,-1.6025,-1.5976,-1.5916,-1.5881,-1.5833,-1.5784,-1.5707,-1.5655,-1.561,-1.5545,-1.5474,-1.5415,-1.5396,-1.5374,-1.5385,-1.536,-1.535,-1.5346,-1.5342,-1.5351,-1.5381,-1.5381,-1.5376,-1.5376,-1.5376]},{"header":{"parameterUnit":"m.s-1","parameterCategory":1,"la1":30.2991,"la2":30.254,"lo1":-89.0895,"lo2":-89.0444,"dy":0.0017,"dx":0.0017,"nx":28,"ny":28,"refTime":"2024-07-16T09:00:00:Z","depth":0,"parameterNumber":3,"parameterNumberName":"V-component_of_WINDS"},"data":[0,0,0,0,0,0,0,0,0,0,0,0,0,0,0,0,0,0,0,0,0,0,0,0,0,0,0,0,0,0,0,0,0,0,0,0,0,0,0,0,0,0,0,0,0,0,0,0,0,0,0,0,0,0,0,0,0,0,4.023,4.0231,0,4.0315,4.0315,4.0316,4.0368,4.0368,4.0369,4.0369,4.0448,4.045,4.0452,0,0,0,0,0,0,0,0,0,0,0,0,0,4.0106,4.0108,4.023,4.0231,4.0232,4.0314,4.0315,4.0317,4.0368,4.0368,4.0369,4.0369,4.0447,4.045,4.0452,0,0,0,0,0,0,0,0,0,0,0,0,0,4.0172,4.0108,4.023,4.0268,4.0272,4.0314,4.0316,4.0317,4.0368,4.0368,4.0369,4.0369,4.0447,4.0449,4.0452,4.0461,0,0,4.0461,4.0462,0,0,0,0,0,0,0,0,4.0168,4.0176,4.0261,4.0265,4.027,4.0331,4.0301,4.0365,4.0368,4.0331,4.0369,4.0369,4.0408,4.0414,4.0429,4.0465,4.0468,4.0461,4.0462,4.0464,4.0464,0,0,0,0,0,0,0,4.0163,4.0173,4.0263,4.0262,4.0268,4.0278,4.0288,4.0313,4.0366,4.0334,4.0338,4.0348,4.0411,4.0426,4.0431,4.0469,4.0461,4.0463,4.0465,4.0466,4.0516,4.0516,0,0,0,0,0,0,4.0154,4.0169,4.026,4.0266,4.0219,4.028,4.0291,4.0311,4.0366,4.0375,4.0348,4.035,4.0421,4.0428,4.0434,4.0449,4.0464,4.0466,4.0468,4.0517,4.0516,4.0516,0,0,0,0,0,0,4.0151,4.0161,4.0257,4.0218,4.0231,4.0282,4.0304,4.0312,4.0328,4.0376,4.0385,4.0354,4.0422,4.043,4.0454,4.0452,4.0468,4.047,4.0517,4.0516,4.0516,4.0477,0,0,0,0,0,0,4.0147,4.016,4.0165,4.0218,4.0233,4.0278,4.0304,4.0314,4.0334,4.0338,4.0385,4.0393,4.0423,4.045,4.0457,4.0456,4.0472,4.0517,4.0517,4.0516,4.0479,4.0475,4.0472,0,0,0,0,0,4.0142,4.0149,4.0165,4.0176,4.0241,4.0278,4.0286,4.0323,4.0333,4.0338,4.0369,4.0391,4.0451,4.0452,4.0461,4.046,4.0518,4.0517,4.0516,4.048,4.0476,4.0472,0,0,0,0,0,0,4.0092,4.0157,4.0175,4.02,4.0233,4.0286,4.0294,4.0317,4.0346,4.0348,4.039,4.04,4.042,4.0442,4.0442,4.0472,4.0487,4.0488,4.0456,4.0453,4.045,4.0444,4.0475,0,0,0,0,0,4.0084,4.0111,4.0165,4.0181,4.0197,4.0242,4.0259,4.0285,4.032,4.0333,4.0366,4.0397,4.0423,4.0439,4.0466,4.0482,4.0493,4.0486,4.0483,4.048,4.048,4.0491,4.0488,4.0513,4.0513,4.0513,0,0,4.0068,4.0106,4.012,4.0172,4.0201,4.0225,4.0254,4.0278,4.0296,4.0336,4.0362,4.0387,4.0424,4.0445,4.0455,4.0464,4.0476,4.0479,4.0476,4.0478,4.049,4.0487,4.0485,4.0513,4.0513,4.0513,0,0,4.005,4.0082,4.01,4.0129,4.0173,4.0203,4.0207,4.0257,4.0276,4.0303,4.0334,4.0355,4.0398,4.0424,4.0443,4.0435,4.0457,4.0443,4.0426,4.0435,4.0433,4.0432,4.0429,4.0428,4.0443,4.0442,4.0442,0,4.0023,4.0064,4.0105,4.0129,4.015,4.0191,4.0208,4.0233,4.0282,4.0295,4.0305,4.0362,4.0389,4.0417,4.0415,4.0429,4.0434,4.0437,4.0431,4.043,4.0429,4.0427,4.0426,4.0441,4.0441,4.0441,4.0441,0,4.0028,4.0055,4.0064,4.0114,4.0136,4.0156,4.0199,4.0216,4.024,4.0268,4.0295,4.033,4.0365,4.0373,4.0395,4.0403,4.0407,4.0423,4.0439,4.0424,4.0423,4.0422,4.0438,4.0438,4.0439,4.0439,0,0,3.9981,4.0055,4.0057,4.0081,4.0132,4.0153,4.0174,4.0211,4.0225,4.0257,4.0275,4.0312,4.0327,4.0348,4.0373,4.0382,4.0374,4.0397,4.0398,4.0392,4.0385,4.0373,4.0372,4.0389,4.0389,4.0389,4.0382,0,3.9971,4.0014,4.0053,4.0081,4.0106,4.0145,4.0163,4.0196,4.0223,4.0246,4.0275,4.0301,4.0319,4.0333,4.0343,4.0373,4.0373,4.0374,4.0404,4.0405,4.0394,4.0371,4.0359,4.0351,4.0382,4.0382,4.0382,0,3.9965,3.9999,4.0031,4.0081,4.0093,4.0109,4.0146,4.0169,4.0206,4.0225,4.0249,4.0276,4.0298,4.0312,4.0343,4.0342,4.0357,4.0373,4.0374,4.0378,4.0393,4.0375,4.0349,4.0348,4.0382,4.0382,4.0382,0,3.9928,3.9981,4.0007,4.0026,4.0085,4.0095,4.012,4.0158,4.0178,4.0209,4.0222,4.0254,4.0271,4.0295,4.0329,4.0336,4.0356,4.0372,4.0371,4.037,4.0374,4.0373,4.035,4.0383,4.0383,4.0383,4.0383,0,3.9913,3.9931,3.9992,4.0007,4.0028,4.0071,4.0089,4.0117,4.015,4.0171,4.0205,4.0223,4.0268,4.029,4.0317,4.0338,4.0346,4.0361,4.0368,4.0358,4.0356,4.0368,4.0369,4.0382,4.0382,4.0382,4.0382,0,3.9875,3.9917,3.9948,4.0002,4.0016,4.0029,4.0074,4.009,4.0119,4.0145,4.0153,4.0198,4.0227,4.0264,4.0303,4.0321,4.0339,4.035,4.0328,4.0332,4.0329,4.0328,4.0313,4.0313,4.0344,4.0344,4.0344,0,3.9863,3.9878,3.9935,3.9953,3.9977,4.0004,4.0025,4.0068,4.0088,4.0132,4.0142,4.0174,4.0202,4.0245,4.028,4.031,4.0322,4.0314,4.0327,4.0317,4.0322,4.0321,4.0323,4.0311,4.0311,4.031,4.031,0,3.9838,3.9858,3.9888,3.9926,3.9951,3.9982,4.0014,4.0025,4.0074,4.0094,4.0126,4.0147,4.0189,4.022,4.0255,4.0278,4.0301,4.0306,4.0307,4.0298,4.0284,4.0292,4.0319,4.0306,4.0306,4.0307,4.0307,4.0307,3.9812,3.9828,3.9871,3.9903,3.9933,3.9962,3.998,4.0013,4.0041,4.008,4.0102,4.0132,4.0169,4.0219,4.0241,4.0264,4.0273,4.0275,4.0275,4.0275,4.0272,4.0281,4.027,4.027,4.0271,4.0271,4.0271,0,3.9789,3.9819,3.9849,3.9894,3.9919,3.9942,3.9979,3.9998,4.0025,4.0058,4.0086,4.0121,4.0152,4.019,4.0222,4.0233,4.0245,4.024,4.024,4.0245,4.0262,4.0258,4.023,4.023,4.023,4.023,4.023,4.023,3.978,3.9808,3.9833,3.9874,3.9904,3.9936,3.9955,3.9982,4.0009,4.0048,4.0074,4.01,4.0135,4.017,4.0198,4.0208,4.0218,4.0211,4.0224,4.024,4.0243,4.0247,4.0243,4.0212,4.0212,4.0205,4.0205,4.0204]}]]